This is the latest recevied weather packets stored in our database for station/object KK7ISX. If no packets are shown the sender has not sent any weather packets the latest 10 day(s).
| Time | Temp. | Humidity | Pressure | Rain* | Wind** | Luminosity | Snow |
|---|---|---|---|---|---|---|---|
| 1777811300 | 6.67° C | 80% | 1013.9 hPa | 0 mm | - | 1 W/m² | - |
| 1777810997 | 6.67° C | 80% | 1013.9 hPa | 0 mm | - | 1 W/m² | - |
| 1777810694 | 6.67° C | 79% | 1014.1 hPa | 0 mm | - | 0 W/m² | - |
| 1777810391 | 6.67° C | 79% | 1013.9 hPa | 0 mm | - | 0 W/m² | - |
| 1777810086 | 6.67° C | 79% | 1013.9 hPa | 0 mm | - | 0 W/m² | - |
| 1777809784 | 6.67° C | 79% | 1014.1 hPa | 0 mm | - | 0 W/m² | - |
| 1777809481 | 7.22° C | 80% | 1014.1 hPa | 0 mm | - | 0 W/m² | - |
| 1777809179 | 7.22° C | 76% | 1014.1 hPa | 0 mm | - | 0 W/m² | - |
| 1777808876 | 7.22° C | 77% | 1013.9 hPa | 0 mm | - | 0 W/m² | - |
| 1777808573 | 7.22° C | 77% | 1013.8 hPa | 0 mm | - | 0 W/m² | - |
| 1777808270 | 7.78° C | 76% | 1013.9 hPa | 0 mm | - | 0 W/m² | - |
| 1777807969 | 8.33° C | 74% | 1014.3 hPa | 0 mm | - | 0 W/m² | - |
| 1777807666 | 8.89° C | 74% | 1014.2 hPa | 0 mm | - | 0 W/m² | - |
| 1777807364 | 8.89° C | 83% | 1014.2 hPa | 0 mm | - | 0 W/m² | - |
| 1777807059 | 7.78° C | 77% | 1014.3 hPa | 0 mm | - | 0 W/m² | - |
| 1777806756 | 7.78° C | 75% | 1014.1 hPa | 0 mm | - | 0 W/m² | - |
| 1777806452 | 7.78° C | 76% | 1014.2 hPa | 0 mm | - | 0 W/m² | - |
| 1777806149 | 7.78° C | 74% | 1014.1 hPa | 0 mm | - | 0 W/m² | - |
| 1777805840 | 7.78° C | 74% | 1014.2 hPa | 0 mm | - | 0 W/m² | - |
| 1777805538 | 7.78° C | 75% | 1014.3 hPa | 0 mm | - | 0 W/m² | - |
| 1777805235 | 7.78° C | 75% | 1013.9 hPa | 0 mm | - | 0 W/m² | - |
| 1777804933 | 8.33° C | 74% | 1014.2 hPa | 0 mm | - | 0 W/m² | - |
| 1777804631 | 7.78° C | 75% | 1014.2 hPa | 0 mm | - | 0 W/m² | - |
| 1777804329 | 8.33° C | 75% | 1014.1 hPa | 0 mm | - | 0 W/m² | - |
| 1777804025 | 8.33° C | 74% | 1013.9 hPa | 0 mm | - | 0 W/m² | - |
* Rain latest hour (hover to see other rain measurements)
** Current wind speed in m/s (hover to see current wind gust speed)